| time (UTC) | temp F | wind direction | speed MPH | gust MPH | rain 1hr in | rain 24hr in | rain mn in | humidity % | barometer mb |
| 20260902171540 | 66 | 242 | 1.0 | 5.0 | 0.00 | 0.01 | 0.01 | 70 | 1017.7 |
| 20260902171040 | 66 | 234 | 1.0 | 5.0 | 0.00 | 0.01 | 0.01 | 70 | 1017.7 |
| 20260902170540 | 66 | 236 | 2.0 | 7.0 | 0.00 | 0.01 | 0.01 | 69 | 1017.7 |
| 20260902170039 | 66 | 272 | 2.0 | 8.0 | 0.00 | 0.01 | 0.01 | 69 | 1017.8 |
| 20260902165540 | 66 | 230 | 2.0 | 8.0 | 0.00 | 0.01 | 0.01 | 68 | 1017.7 |
| 20260902165039 | 66 | 288 | 3.0 | 7.0 | 0.00 | 0.01 | 0.01 | 68 | 1017.7 |
| 20260902164539 | 67 | 296 | 2.0 | 7.0 | 0.00 | 0.01 | 0.01 | 68 | 1017.7 |
| 20260902164038 | 67 | 319 | 1.0 | 9.0 | 0.00 | 0.01 | 0.01 | 67 | 1017.6 |
| 20260902163539 | 67 | 223 | 3.0 | 9.0 | 0.00 | 0.01 | 0.01 | 66 | 1017.6 |
| 20260902163042 | 68 | 249 | 2.0 | 5.0 | 0.00 | 0.01 | 0.01 | 65 | 1017.7 |
| 20260902162537 | 68 | 269 | 1.0 | 7.0 | 0.00 | 0.01 | 0.01 | 64 | 1017.6 |
| 20260902162038 | 68 | 258 | 2.0 | 8.0 | 0.00 | 0.01 | 0.01 | 63 | 1017.6 |
| 20260902161541 | 68 | 258 | 3.0 | 8.0 | 0.00 | 0.01 | 0.01 | 62 | 1017.6 |
| 20260902161037 | 69 | 227 | 1.0 | 9.0 | 0.00 | 0.01 | 0.01 | 62 | 1017.6 |
| 20260902160638 | 69 | 256 | 4.0 | 9.0 | 0.00 | 0.01 | 0.01 | 62 | 1017.6 |
| 20260902160035 | 68 | 240 | 3.0 | 8.0 | 0.00 | 0.01 | 0.01 | 61 | 1017.5 |
| 20260902155535 | 68 | 234 | 2.0 | 5.0 | 0.00 | 0.01 | 0.01 | 61 | 1017.5 |
| 20260902155037 | 68 | 219 | 1.0 | 5.0 | 0.00 | 0.01 | 0.01 | 63 | 1017.5 |
| 20260902154534 | 68 | 232 | 2.0 | 7.0 | 0.00 | 0.01 | 0.01 | 61 | 1017.5 |
| 20260902154032 | 68 | 225 | 2.0 | 7.0 | 0.00 | 0.01 | 0.01 | 59 | 1017.5 |
| 20260902153532 | 68 | 251 | 1.0 | 6.0 | 0.00 | 0.01 | 0.01 | 60 | 1017.6 |
| 20260902153031 | 68 | 215 | 2.0 | 6.0 | 0.00 | 0.01 | 0.01 | 60 | 1017.7 |
| 20260902152530 | 69 | 216 | 1.0 | 6.0 | 0.00 | 0.01 | 0.01 | 57 | 1017.7 |
| 20260902152030 | 70 | 239 | 1.0 | 7.0 | 0.00 | 0.01 | 0.01 | 56 | 1017.7 |
| 20260902151531 | 70 | 263 | 2.0 | 9.0 | 0.00 | 0.01 | 0.01 | 57 | 1017.8 |
| 20260902151030 | 70 | 205 | 3.0 | 9.0 | 0.00 | 0.01 | 0.01 | 56 | 1017.8 |
| 20260902150529 | 71 | 286 | 2.0 | 11.0 | 0.00 | 0.01 | 0.01 | 56 | 1017.8 |
| 20260902150031 | 71 | 223 | 2.0 | 12.0 | 0.00 | 0.01 | 0.01 | 57 | 1017.8 |
| 20260902145630 | 71 | 209 | 4.0 | 12.0 | 0.00 | 0.01 | 0.01 | 56 | 1017.8 |
| 20260902145028 | 71 | 112 | 3.0 | 9.0 | 0.00 | 0.01 | 0.01 | 58 | 1017.8 |
| 20260902144527 | 71 | 182 | 4.0 | 8.0 | 0.00 | 0.01 | 0.01 | 58 | 1017.8 |
| 20260902144027 | 71 | 212 | 4.0 | 11.0 | 0.00 | 0.01 | 0.01 | 56 | 1017.9 |
| 20260902143527 | 71 | 246 | 2.0 | 11.0 | 0.00 | 0.01 | 0.01 | 59 | 1017.8 |
| 20260902143025 | 71 | 246 | 1.0 | 9.0 | 0.00 | 0.01 | 0.01 | 59 | 1017.8 |
| 20260902142525 | 71 | 287 | 3.0 | 9.0 | 0.00 | 0.01 | 0.01 | 56 | 1017.9 |
| 20260902142025 | 71 | 221 | 3.0 | 9.0 | 0.00 | 0.01 | 0.01 | 56 | 1017.9 |
| 20260902141535 | 71 | 216 | 3.0 | 10.0 | 0.00 | 0.01 | 0.01 | 59 | 1018.0 |
| 20260902141025 | 71 | 171 | 4.0 | 10.0 | 0.00 | 0.01 | 0.01 | 59 | 1018.0 |
| 20260902140523 | 71 | 302 | 3.0 | 10.0 | 0.00 | 0.01 | 0.01 | 57 | 1018.0 |
| 20260902140023 | 71 | 257 | 2.0 | 12.0 | 0.00 | 0.01 | 0.01 | 60 | 1018.0 |
| 20260902135523 | 71 | 234 | 2.0 | 8.0 | 0.00 | 0.01 | 0.01 | 61 | 1018.1 |
| 20260902135022 | 71 | 313 | 1.0 | 5.0 | 0.00 | 0.01 | 0.01 | 65 | 1018.0 |
| 20260902134623 | 70 | 325 | 1.0 | 4.0 | 0.00 | 0.01 | 0.01 | 63 | 1018.0 |
| 20260902134020 | 69 | 355 | 0.0 | 3.0 | 0.00 | 0.01 | 0.01 | 69 | 1018.0 |
| 20260902133520 | 67 | 333 | 1.0 | 4.0 | 0.00 | 0.01 | 0.01 | 68 | 1018.0 |
| 20260902133020 | 67 | 318 | 1.0 | 4.0 | 0.00 | 0.01 | 0.01 | 69 | 1018.1 |
| 20260902132522 | 68 | 348 | 0.0 | 5.0 | 0.00 | 0.01 | 0.01 | 68 | 1018.1 |
| 20260902132019 | 68 | 280 | 1.0 | 10.0 | 0.00 | 0.01 | 0.01 | 67 | 1018.1 |
| 20260902131519 | 69 | 196 | 6.0 | 10.0 | 0.00 | 0.01 | 0.01 | 64 | 1017.9 |
| 20260902131019 | 70 | 225 | 1.0 | 8.0 | 0.00 | 0.01 | 0.01 | 64 | 1018.0 |
| 20260902130522 | 70 | 252 | 4.0 | 9.0 | 0.00 | 0.01 | 0.01 | 61 | 1017.9 |
| 20260902130018 | 70 | 298 | 1.0 | 10.0 | 0.00 | 0.01 | 0.01 | 64 | 1018.1 |
| 20260902125517 | 70 | 209 | 3.0 | 10.0 | 0.00 | 0.32 | 0.01 | 63 | 1018.1 |
| 20260902125020 | 70 | 219 | 5.0 | 10.0 | 0.00 | 0.32 | 0.01 | 62 | 1018.2 |
| 20260902124517 | 70 | 265 | 4.0 | 10.0 | 0.00 | 0.32 | 0.01 | 61 | 1018.2 |
| 20260902124018 | 70 | 246 | 3.0 | 8.0 | 0.00 | 0.32 | 0.01 | 62 | 1018.2 |
| 20260902123516 | 70 | 32 | 2.0 | 6.0 | 0.00 | 0.32 | 0.01 | 60 | 1018.1 |
| 20260902123020 | 70 | 321 | 1.0 | 8.0 | 0.00 | 0.32 | 0.01 | 64 | 1018.1 |
| 20260902122518 | 70 | 310 | 2.0 | 8.0 | 0.00 | 0.32 | 0.01 | 63 | 1018.1 |
| 20260902122014 | 70 | 163 | 2.0 | 6.0 | 0.00 | 0.32 | 0.01 | 62 | 1018.1 |
| 20260902121515 | 70 | 270 | 2.0 | 8.0 | 0.00 | 0.32 | 0.01 | 66 | 1018.1 |
| 20260902121012 | 69 | 5 | 2.0 | 8.0 | 0.00 | 0.32 | 0.01 | 65 | 1018.1 |
| 20260902120511 | 69 | 242 | 1.0 | 7.0 | 0.00 | 0.32 | 0.01 | 69 | 1018.1 |
| 20260902120011 | 69 | 234 | 2.0 | 6.0 | 0.00 | 0.32 | 0.01 | 66 | 1018.1 |
| 20260902115514 | 68 | 224 | 1.0 | 6.0 | 0.00 | 0.32 | 0.01 | 69 | 1018.2 |
| 20260902115012 | 68 | 220 | 1.0 | 6.0 | 0.00 | 0.32 | 0.01 | 68 | 1018.4 |
| 20260902114511 | 69 | 279 | 1.0 | 8.0 | 0.00 | 0.32 | 0.01 | 68 | 1018.3 |
| 20260902114011 | 69 | 343 | 3.0 | 8.0 | 0.00 | 0.32 | 0.01 | 70 | 1018.4 |
| 20260902113507 | 68 | 216 | 1.0 | 5.0 | 0.00 | 0.32 | 0.01 | 72 | 1018.5 |
| 20260902113005 | 68 | 275 | 1.0 | 7.0 | 0.00 | 0.32 | 0.01 | 71 | 1018.5 |
| 20260902112504 | 67 | 229 | 1.0 | 8.0 | 0.00 | 0.32 | 0.01 | 72 | 1018.5 |
| 20260902112004 | 66 | 277 | 2.0 | 8.0 | 0.00 | 0.32 | 0.01 | 71 | 1018.6 |
| 20260902111504 | 67 | 219 | 2.0 | 7.0 | 0.00 | 0.32 | 0.01 | 70 | 1018.6 |
| 20260902111003 | 66 | 38 | 0.0 | 7.0 | 0.00 | 0.32 | 0.01 | 74 | 1018.5 |
| 20260902110503 | 66 | 205 | 2.0 | 7.0 | 0.00 | 0.32 | 0.01 | 71 | 1018.5 |
| 20260902110008 | 67 | 105 | 0.0 | 3.0 | 0.00 | 0.32 | 0.01 | 72 | 1018.5 |
| 20260902105504 | 67 | 205 | 0.0 | 7.0 | 0.00 | 0.32 | 0.01 | 70 | 1018.5 |
| 20260902105002 | 67 | 333 | 1.0 | 7.0 | 0.00 | 0.32 | 0.01 | 69 | 1018.5 |
| 20260902104508 | 68 | 298 | 2.0 | 7.0 | 0.00 | 0.32 | 0.01 | 71 | 1018.5 |
| 20260902104001 | 67 | 209 | 2.0 | 8.0 | 0.00 | 0.32 | 0.01 | 69 | 1018.6 |
| 20260902103600 | 67 | 295 | 3.0 | 8.0 | 0.00 | 0.32 | 0.01 | 71 | 1018.6 |
| 20260902103059 | 66 | 197 | 2.0 | 4.0 | 0.00 | 0.32 | 0.01 | 76 | 1018.5 |
| 20260902102559 | 66 | 324 | 1.0 | 4.0 | 0.00 | 0.32 | 0.01 | 73 | 1018.6 |
| 20260902102103 | 67 | 281 | 1.0 | 5.0 | 0.00 | 0.32 | 0.01 | 75 | 1018.6 |
| 20260902101601 | 66 | 242 | 2.0 | 7.0 | 0.00 | 0.32 | 0.01 | 72 | 1018.7 |
| 20260902101057 | 66 | 269 | 2.0 | 7.0 | 0.00 | 0.32 | 0.01 | 73 | 1018.7 |
| 20260902100557 | 67 | 246 | 2.0 | 4.0 | 0.00 | 0.32 | 0.01 | 75 | 1018.6 |
| 20260902100123 | 67 | 252 | 1.0 | 4.0 | 0.00 | 0.32 | 0.01 | 77 | 1018.7 |
| 20260902095600 | 66 | 341 | 1.0 | 4.0 | 0.00 | 0.32 | 0.01 | 74 | 1018.7 |
| 20260902095059 | 66 | 271 | 2.0 | 4.0 | 0.00 | 0.32 | 0.01 | 74 | 1018.7 |
| 20260902094554 | 66 | 19 | 2.0 | 5.0 | 0.00 | 0.32 | 0.01 | 80 | 1018.7 |
| 20260902094053 | 65 | 213 | 2.0 | 5.0 | 0.00 | 0.32 | 0.01 | 78 | 1018.7 |
| 20260902093553 | 65 | 11 | 1.0 | 4.0 | 0.00 | 0.32 | 0.01 | 80 | 1018.8 |
| 20260902093100 | 64 | 238 | 1.0 | 7.0 | 0.00 | 0.32 | 0.01 | 80 | 1018.8 |
| 20260902092550 | 64 | 213 | 0.0 | 7.0 | 0.00 | 0.32 | 0.01 | 81 | 1018.8 |
| 20260902092050 | 64 | 246 | 1.0 | 5.0 | 0.00 | 0.32 | 0.01 | 82 | 1018.8 |
| 20260902091551 | 64 | 227 | 0.0 | 5.0 | 0.00 | 0.32 | 0.01 | 84 | 1018.7 |
| 20260902091049 | 64 | 242 | 0.0 | 3.0 | 0.00 | 0.32 | 0.01 | 83 | 1018.7 |
| 20260902090549 | 64 | 241 | 0.0 | 3.0 | 0.00 | 0.32 | 0.01 | 85 | 1018.7 |
| 20260902090048 | 64 | 197 | 0.0 | 3.0 | 0.00 | 0.32 | 0.01 | 87 | 1018.7 |
| 20260902085548 | 63 | 194 | 1.0 | 3.0 | 0.00 | 0.32 | 0.01 | 89 | 1018.7 |
| 20260902085045 | 62 | 115 | 0.0 | 2.0 | 0.00 | 0.32 | 0.01 | 91 | 1018.7 |
| 20260902084544 | 61 | 113 | 0.0 | 2.0 | 0.00 | 0.32 | 0.01 | 93 | 1018.7 |
| 20260902084042 | 60 | 113 | 0.0 | 2.0 | 0.00 | 0.32 | 0.01 | 93 | 1018.8 |
| 20260902083540 | 60 | 113 | 0.0 | 3.0 | 0.00 | 0.32 | 0.01 | 93 | 1018.8 |
| 20260902083046 | 59 | 115 | 0.0 | 2.0 | 0.00 | 0.32 | 0.01 | 93 | 1018.8 |
| 20260902082537 | 59 | 115 | 0.0 | 2.0 | 0.00 | 0.32 | 0.01 | 93 | 1018.7 |
| 20260902082037 | 58 | 91 | 0.0 | 3.0 | 0.00 | 0.32 | 0.01 | 94 | 1018.7 |
| 20260902081553 | 58 | 91 | 0.0 | 3.0 | 0.00 | 0.32 | 0.01 | 94 | 1018.7 |
| 20260902081035 | 58 | 91 | 1.0 | 3.0 | 0.00 | 0.32 | 0.01 | 94 | 1018.6 |
| 20260902080536 | 58 | 91 | 1.0 | 3.0 | 0.00 | 0.32 | 0.01 | 94 | 1018.6 |
| 20260902080036 | 58 | 92 | 1.0 | 3.0 | 0.00 | 0.32 | 0.01 | 94 | 1018.6 |
| 20260902075532 | 57 | 94 | 0.0 | 2.0 | 0.00 | 0.32 | 0.01 | 94 | 1018.6 |
| 20260902075033 | 57 | 94 | 0.0 | 4.0 | 0.00 | 0.32 | 0.01 | 94 | 1018.5 |
| 20260902074532 | 57 | 94 | 0.0 | 4.0 | 0.00 | 0.32 | 0.01 | 94 | 1018.5 |
| 20260902074031 | 57 | 115 | 0.0 | 3.0 | 0.00 | 0.32 | 0.01 | 94 | 1018.3 |
| 20260902073533 | 57 | 115 | 0.0 | 3.0 | 0.00 | 0.32 | 0.01 | 94 | 1018.3 |
| 20260902073030 | 57 | 117 | 1.0 | 3.0 | 0.00 | 0.32 | 0.01 | 94 | 1018.4 |
| 20260902072529 | 57 | 117 | 0.0 | 2.0 | 0.00 | 0.32 | 0.01 | 94 | 1018.4 |
| 20260902072029 | 57 | 117 | 0.0 | 2.0 | 0.00 | 0.32 | 0.01 | 94 | 1018.4 |
| 20260902071535 | 56 | 117 | 1.0 | 4.0 | 0.00 | 0.32 | 0.01 | 94 | 1018.4 |
| 20260902071028 | 56 | 117 | 0.0 | 4.0 | 0.00 | 0.32 | 0.01 | 94 | 1018.3 |
| 20260902070529 | 56 | 118 | 1.0 | 3.0 | 0.00 | 0.32 | 0.01 | 94 | 1018.4 |
| 20260902070033 | 56 | 115 | 1.0 | 3.0 | 0.00 | 0.32 | 0.01 | 94 | 1018.4 |
| 20260902065528 | 56 | 109 | 1.0 | 3.0 | 0.00 | 0.32 | 0.01 | 94 | 1018.4 |
| 20260902065026 | 56 | 110 | 0.0 | 3.0 | 0.00 | 0.32 | 0.01 | 94 | 1018.4 |
| 20260902064526 | 56 | 110 | 1.0 | 3.0 | 0.00 | 0.32 | 0.01 | 94 | 1018.3 |
| 20260902064027 | 55 | 110 | 1.0 | 4.0 | 0.00 | 0.32 | 0.01 | 94 | 1018.4 |
| 20260902063524 | 55 | 111 | 1.0 | 4.0 | 0.00 | 0.32 | 0.01 | 94 | 1018.4 |
| 20260902063023 | 55 | 115 | 0.0 | 2.0 | 0.00 | 0.32 | 0.01 | 94 | 1018.4 |
| 20260902062521 | 55 | 115 | 0.0 | 2.0 | 0.00 | 0.32 | 0.01 | 94 | 1018.3 |
| 20260902062020 | 55 | 115 | 0.0 | 2.0 | 0.00 | 0.32 | 0.01 | 94 | 1018.4 |
| 20260902061520 | 55 | 115 | 0.0 | 2.0 | 0.00 | 0.32 | 0.01 | 94 | 1018.3 |
| 20260902061029 | 55 | 115 | 0.0 | 1.0 | 0.00 | 0.32 | 0.01 | 94 | 1018.3 |
| 20260902060518 | 55 | 117 | 0.0 | 2.0 | 0.00 | 0.32 | 0.01 | 94 | 1018.3 |
| 20260902060016 | 54 | 117 | 0.0 | 3.0 | 0.00 | 0.32 | 0.01 | 94 | 1018.3 |
| 20260902055515 | 54 | 117 | 0.0 | 3.0 | 0.00 | 0.32 | 0.01 | 94 | 1018.2 |
| 20260902055015 | 54 | 117 | 0.0 | 2.0 | 0.00 | 0.32 | 0.01 | 94 | 1018.3 |
| 20260902054514 | 54 | 117 | 0.0 | 3.0 | 0.00 | 0.32 | 0.01 | 94 | 1018.3 |
| 20260902054013 | 54 | 117 | 0.0 | 3.0 | 0.00 | 0.32 | 0.01 | 94 | 1018.3 |
| 20260902053513 | 54 | 110 | 0.0 | 3.0 | 0.00 | 0.32 | 0.01 | 94 | 1018.3 |
| 20260902053014 | 54 | 110 | 0.0 | 2.0 | 0.00 | 0.32 | 0.01 | 94 | 1018.2 |
| 20260902052512 | 54 | 110 | 0.0 | 3.0 | 0.00 | 0.32 | 0.01 | 94 | 1018.3 |
| 20260902052011 | 54 | 111 | 0.0 | 3.0 | 0.00 | 0.32 | 0.01 | 94 | 1018.3 |
| 20260902051510 | 54 | 110 | 0.0 | 2.0 | 0.00 | 0.32 | 0.01 | 94 | 1018.3 |
| 20260902051013 | 54 | 110 | 0.0 | 4.0 | 0.00 | 0.32 | 0.01 | 94 | 1018.2 |
| 20260902050511 | 54 | 110 | 1.0 | 4.0 | 0.00 | 0.32 | 0.01 | 94 | 1018.2 |
| 20260902050011 | 54 | 108 | 0.0 | 3.0 | 0.00 | 0.32 | 0.01 | 94 | 1018.3 |
| 20260902045510 | 54 | 109 | 1.0 | 3.0 | 0.00 | 0.32 | 0.01 | 94 | 1018.3 |
| 20260902045009 | 54 | 99 | 0.0 | 3.0 | 0.00 | 0.32 | 0.01 | 94 | 1018.3 |
| 20260902044522 | 54 | 99 | 0.0 | 3.0 | 0.00 | 0.32 | 0.01 | 94 | 1018.3 |
| 20260902044009 | 54 | 99 | 0.0 | 3.0 | 0.00 | 0.32 | 0.01 | 94 | 1018.3 |
| 20260902043508 | 54 | 101 | 0.0 | 0.0 | 0.00 | 0.32 | 0.01 | 94 | 1018.4 |
| 20260902043006 | 54 | 101 | 0.0 | 0.0 | 0.00 | 0.32 | 0.01 | 94 | 1018.4 |
| 20260902042506 | 54 | 101 | 0.0 | 1.0 | 0.00 | 0.32 | 0.01 | 94 | 1018.4 |
| 20260902042005 | 54 | 101 | 0.0 | 1.0 | 0.00 | 0.32 | 0.01 | 94 | 1018.4 |
| 20260902041505 | 54 | 101 | 0.0 | 1.0 | 0.00 | 0.32 | 0.01 | 94 | 1018.4 |
| 20260902041007 | 54 | 101 | 0.0 | 1.0 | 0.00 | 0.32 | 0.01 | 94 | 1018.3 |
| 20260902040506 | 54 | 101 | 0.0 | 2.0 | 0.00 | 0.32 | 0.01 | 94 | 1018.3 |
| 20260902040004 | 54 | 101 | 0.0 | 4.0 | 0.00 | 0.32 | 0.01 | 94 | 1018.2 |
| 20260902035503 | 54 | 101 | 2.0 | 4.0 | 0.00 | 0.32 | 0.01 | 94 | 1018.3 |
| 20260902035003 | 54 | 126 | 1.0 | 4.0 | 0.00 | 0.32 | 0.01 | 94 | 1018.3 |
| 20260902034503 | 53 | 128 | 1.0 | 3.0 | 0.00 | 0.32 | 0.01 | 94 | 1018.3 |
| 20260902034002 | 53 | 128 | 1.0 | 4.0 | 0.00 | 0.32 | 0.01 | 94 | 1018.3 |
| 20260902033503 | 53 | 128 | 1.0 | 4.0 | 0.00 | 0.32 | 0.01 | 94 | 1018.5 |
| 20260902033001 | 53 | 132 | 0.0 | 4.0 | 0.00 | 0.32 | 0.01 | 94 | 1018.5 |
| 20260902032601 | 53 | 133 | 1.0 | 3.0 | 0.00 | 0.32 | 0.01 | 94 | 1018.5 |
| 20260902032100 | 53 | 148 | 1.0 | 3.0 | 0.00 | 0.32 | 0.01 | 94 | 1018.4 |
| 20260902031601 | 53 | 156 | 0.0 | 3.0 | 0.00 | 0.32 | 0.01 | 94 | 1018.5 |
| 20260902031100 | 53 | 156 | 0.0 | 2.0 | 0.00 | 0.32 | 0.01 | 94 | 1018.5 |
| 20260902030559 | 52 | 156 | 0.0 | 2.0 | 0.00 | 0.32 | 0.01 | 94 | 1018.6 |
| 20260902030059 | 52 | 156 | 0.0 | 2.0 | 0.00 | 0.32 | 0.01 | 94 | 1018.6 |
| 20260902025558 | 52 | 156 | 0.0 | 2.0 | 0.00 | 0.32 | 0.01 | 94 | 1018.6 |
| 20260902025100 | 52 | 156 | 0.0 | 1.0 | 0.00 | 0.32 | 0.01 | 94 | 1018.5 |
| 20260902024608 | 51 | 156 | 0.0 | 2.0 | 0.00 | 0.32 | 0.01 | 94 | 1018.6 |
| 20260902024057 | 51 | 156 | 0.0 | 2.0 | 0.00 | 0.32 | 0.01 | 94 | 1018.5 |
| 20260902023600 | 51 | 156 | 0.0 | 1.0 | 0.00 | 0.32 | 0.01 | 94 | 1018.6 |
| 20260902023059 | 51 | 156 | 0.0 | 1.0 | 0.00 | 0.32 | 0.01 | 94 | 1018.6 |
| 20260902022604 | 51 | 156 | 0.0 | 1.0 | 0.00 | 0.32 | 0.01 | 94 | 1018.6 |
| 20260902022057 | 51 | 156 | 0.0 | 0.0 | 0.00 | 0.32 | 0.01 | 94 | 1018.8 |
| 20260902021556 | 51 | 156 | 0.0 | 0.0 | 0.00 | 0.32 | 0.01 | 94 | 1018.7 |
| 20260902021056 | 51 | 156 | 0.0 | 0.0 | 0.00 | 0.32 | 0.01 | 94 | 1018.6 |
| 20260902020556 | 51 | 156 | 0.0 | 0.0 | 0.00 | 0.32 | 0.01 | 94 | 1018.7 |
| 20260902020116 | 51 | 156 | 0.0 | 0.0 | 0.00 | 0.32 | 0.01 | 94 | 1018.7 |
| 20260902015556 | 52 | 156 | 0.0 | 1.0 | 0.00 | 0.32 | 0.01 | 94 | 1018.8 |
| 20260902015056 | 52 | 156 | 0.0 | 1.0 | 0.00 | 0.32 | 0.01 | 94 | 1018.8 |
| 20260902014601 | 52 | 156 | 0.0 | 1.0 | 0.00 | 0.32 | 0.01 | 94 | 1018.8 |
| 20260902014055 | 52 | 156 | 0.0 | 1.0 | 0.00 | 0.32 | 0.01 | 94 | 1018.8 |
| 20260902013555 | 52 | 157 | 0.0 | 0.0 | 0.00 | 0.32 | 0.01 | 94 | 1018.8 |
| 20260902013055 | 51 | 157 | 0.0 | 0.0 | 0.00 | 0.32 | 0.01 | 94 | 1018.9 |
| 20260902012554 | 52 | 157 | 0.0 | 0.0 | 0.00 | 0.32 | 0.01 | 94 | 1018.9 |
| 20260902012100 | 51 | 157 | 0.0 | 0.0 | 0.00 | 0.32 | 0.01 | 94 | 1018.8 |
| 20260902011554 | 51 | 157 | 0.0 | 1.0 | 0.00 | 0.32 | 0.01 | 94 | 1018.9 |
| 20260902011055 | 51 | 157 | 0.0 | 3.0 | 0.00 | 0.32 | 0.01 | 94 | 1018.8 |
| 20260902010555 | 51 | 157 | 0.0 | 3.0 | 0.00 | 0.32 | 0.01 | 94 | 1018.6 |
| 20260902010054 | 51 | 157 | 0.0 | 3.0 | 0.00 | 0.32 | 0.01 | 94 | 1018.6 |
| 20260902005558 | 51 | 236 | 0.0 | 1.0 | 0.00 | 0.32 | 0.01 | 94 | 1018.6 |
| 20260902005054 | 51 | 236 | 0.0 | 2.0 | 0.00 | 0.32 | 0.01 | 94 | 1018.6 |
| 20260902004554 | 51 | 236 | 0.0 | 2.0 | 0.00 | 0.32 | 0.01 | 94 | 1018.5 |
| 20260902004053 | 51 | 238 | 0.0 | 1.0 | 0.00 | 0.32 | 0.01 | 94 | 1018.6 |
| 20260902003553 | 51 | 238 | 0.0 | 0.0 | 0.00 | 0.32 | 0.01 | 94 | 1018.7 |
| 20260902003059 | 50 | 238 | 0.0 | 0.0 | 0.00 | 0.32 | 0.01 | 94 | 1018.6 |
| 20260902002551 | 50 | 238 | 0.0 | 0.0 | 0.00 | 0.32 | 0.01 | 93 | 1018.6 |
| 20260902002051 | 51 | 238 | 0.0 | 0.0 | 0.00 | 0.32 | 0.01 | 93 | 1018.6 |
| 20260902001551 | 51 | 238 | 0.0 | 0.0 | 0.00 | 0.32 | 0.01 | 93 | 1018.7 |
| 20260902001051 | 51 | 238 | 0.0 | 0.0 | 0.00 | 0.32 | 0.01 | 93 | 1018.7 |
| 20260902000549 | 51 | 238 | 0.0 | 0.0 | 0.00 | 0.32 | 0.01 | 93 | 1018.7 |
| 20260902000050 | 51 | 238 | 0.0 | 0.0 | 0.00 | 0.32 | 0.01 | 93 | 1018.7 |
| 20260901235550 | 51 | 238 | 0.0 | 0.0 | 0.00 | 0.36 | 0.01 | 93 | 1018.8 |
| 20260901235047 | 51 | 238 | 0.0 | 0.0 | 0.00 | 0.36 | 0.01 | 93 | 1018.8 |
| 20260901234602 | 51 | 238 | 0.0 | 0.0 | 0.00 | 0.36 | 0.01 | 93 | 1019.0 |
| 20260901234046 | 51 | 238 | 0.0 | 0.0 | 0.00 | 0.36 | 0.01 | 93 | 1019.0 |
| 20260901233546 | 51 | 238 | 0.0 | 0.0 | 0.00 | 0.36 | 0.01 | 93 | 1019.0 |
| 20260901233052 | 51 | 238 | 0.0 | 0.0 | 0.00 | 0.36 | 0.01 | 93 | 1019.0 |
| 20260901232544 | 51 | 238 | 0.0 | 0.0 | 0.00 | 0.36 | 0.01 | 93 | 1019.1 |
| 20260901232047 | 51 | 238 | 0.0 | 0.0 | 0.00 | 0.36 | 0.01 | 93 | 1019.1 |
| 20260901231544 | 52 | 238 | 0.0 | 0.0 | 0.00 | 0.36 | 0.01 | 93 | 1019.1 |
| 20260901231043 | 52 | 238 | 0.0 | 0.0 | 0.00 | 0.36 | 0.01 | 93 | 1019.2 |
| 20260901230543 | 52 | 238 | 0.0 | 0.0 | 0.01 | 0.36 | 0.01 | 93 | 1019.2 |
| 20260901230049 | 52 | 238 | 0.0 | 0.0 | 0.01 | 0.36 | 0.01 | 93 | 1019.2 |
| 20260901225542 | 52 | 238 | 0.0 | 0.0 | 0.01 | 0.36 | 0.01 | 93 | 1019.2 |
| 20260901225042 | 52 | 238 | 0.0 | 0.0 | 0.01 | 0.36 | 0.01 | 93 | 1019.2 |
| 20260901224545 | 52 | 238 | 0.0 | 0.0 | 0.01 | 0.36 | 0.01 | 93 | 1019.2 |
| 20260901224042 | 52 | 238 | 0.0 | 0.0 | 0.01 | 0.36 | 0.01 | 93 | 1019.2 |
| 20260901223540 | 52 | 238 | 0.0 | 0.0 | 0.01 | 0.36 | 0.01 | 93 | 1019.2 |
| 20260901223038 | 52 | 238 | 0.0 | 0.0 | 0.01 | 0.36 | 0.01 | 93 | 1019.2 |
| 20260901222539 | 53 | 238 | 0.0 | 0.0 | 0.01 | 0.36 | 0.01 | 93 | 1019.2 |
| 20260901222037 | 53 | 238 | 0.0 | 0.0 | 0.01 | 0.36 | 0.01 | 93 | 1019.1 |
| 20260901221602 | 53 | 238 | 0.0 | 0.0 | 0.01 | 0.36 | 0.01 | 93 | 1019.2 |
| 20260901221036 | 53 | 238 | 0.0 | 0.0 | 0.01 | 0.36 | 0.01 | 93 | 1019.1 |
| 20260901220536 | 53 | 238 | 0.0 | 0.0 | 0.00 | 0.35 | 0.00 | 93 | 1019.1 |
| 20260901220035 | 53 | 238 | 0.0 | 0.0 | 0.00 | 0.35 | 0.00 | 93 | 1019.1 |
| 20260901215534 | 53 | 238 | 0.0 | 1.0 | 0.00 | 0.35 | 0.35 | 93 | 1019.1 |
| 20260901215034 | 53 | 238 | 0.0 | 1.0 | 0.00 | 0.35 | 0.35 | 93 | 1019.1 |
| 20260901214533 | 54 | 238 | 0.0 | 0.0 | 0.00 | 0.35 | 0.35 | 93 | 1019.0 |
| 20260901214033 | 54 | 238 | 0.0 | 0.0 | 0.00 | 0.35 | 0.35 | 93 | 1019.1 |
| 20260901213531 | 54 | 238 | 0.0 | 0.0 | 0.00 | 0.35 | 0.35 | 93 | 1019.0 |
| 20260901213029 | 54 | 238 | 0.0 | 0.0 | 0.00 | 0.35 | 0.35 | 93 | 1019.0 |
| 20260901212529 | 54 | 238 | 0.0 | 0.0 | 0.00 | 0.35 | 0.35 | 93 | 1018.9 |
| 20260901212031 | 55 | 238 | 0.0 | 0.0 | 0.00 | 0.35 | 0.35 | 93 | 1018.9 |
| 20260901211534 | 55 | 238 | 0.0 | 1.0 | 0.00 | 0.35 | 0.35 | 93 | 1018.8 |
| 20260901211031 | 55 | 238 | 0.0 | 2.0 | 0.00 | 0.35 | 0.35 | 93 | 1018.8 |
| 20260901210526 | 55 | 238 | 0.0 | 0.0 | 0.00 | 0.35 | 0.35 | 93 | 1018.8 |
| 20260901210026 | 55 | 238 | 0.0 | 0.0 | 0.00 | 0.35 | 0.35 | 93 | 1018.8 |
| 20260901205526 | 56 | 238 | 0.0 | 0.0 | 0.00 | 0.37 | 0.35 | 93 | 1018.8 |
| 20260901205024 | 56 | 238 | 0.0 | 0.0 | 0.00 | 0.37 | 0.35 | 93 | 1018.8 |
| 20260901204532 | 56 | 238 | 0.0 | 0.0 | 0.00 | 0.37 | 0.35 | 93 | 1018.9 |
| 20260901204022 | 56 | 238 | 0.0 | 0.0 | 0.00 | 0.37 | 0.35 | 93 | 1018.8 |
| 20260901203522 | 56 | 238 | 0.0 | 0.0 | 0.00 | 0.37 | 0.35 | 93 | 1018.8 |
| 20260901203040 | 56 | 238 | 0.0 | 0.0 | 0.00 | 0.37 | 0.35 | 93 | 1018.7 |
| 20260901202522 | 56 | 238 | 0.0 | 1.0 | 0.00 | 0.37 | 0.35 | 93 | 1018.8 |
| 20260901202030 | 56 | 238 | 0.0 | 2.0 | 0.00 | 0.37 | 0.35 | 93 | 1018.8 |
| 20260901201534 | 56 | 238 | 0.0 | 2.0 | 0.00 | 0.37 | 0.35 | 93 | 1018.7 |
| 20260901201021 | 56 | 238 | 0.0 | 0.0 | 0.00 | 0.37 | 0.35 | 92 | 1018.8 |
| 20260901200519 | 56 | 238 | 0.0 | 0.0 | 0.00 | 0.37 | 0.35 | 92 | 1018.7 |
| 20260901200020 | 56 | 238 | 0.0 | 0.0 | 0.00 | 0.37 | 0.35 | 92 | 1018.8 |
| 20260901195518 | 57 | 238 | 0.0 | 0.0 | 0.00 | 0.37 | 0.35 | 92 | 1018.8 |
| 20260901195016 | 57 | 238 | 0.0 | 0.0 | 0.00 | 0.37 | 0.35 | 92 | 1018.8 |
| 20260901194516 | 57 | 238 | 0.0 | 1.0 | 0.00 | 0.37 | 0.35 | 92 | 1018.8 |
| 20260901194018 | 57 | 238 | 0.0 | 1.0 | 0.00 | 0.37 | 0.35 | 92 | 1018.8 |
| 20260901193515 | 57 | 238 | 0.0 | 1.0 | 0.00 | 0.37 | 0.35 | 92 | 1018.7 |
| 20260901193015 | 57 | 238 | 0.0 | 1.0 | 0.00 | 0.37 | 0.35 | 92 | 1018.7 |
| 20260901192514 | 58 | 238 | 0.0 | 0.0 | 0.00 | 0.37 | 0.35 | 92 | 1018.6 |
| 20260901192020 | 58 | 238 | 0.0 | 0.0 | 0.00 | 0.37 | 0.35 | 91 | 1018.7 |
| 20260901191518 | 58 | 238 | 0.0 | 0.0 | 0.00 | 0.37 | 0.35 | 92 | 1018.7 |
| 20260901191017 | 58 | 238 | 0.0 | 0.0 | 0.00 | 0.37 | 0.35 | 91 | 1018.7 |
| 20260901190513 | 58 | 238 | 0.0 | 0.0 | 0.00 | 0.37 | 0.35 | 91 | 1018.6 |
| 20260901190017 | 58 | 238 | 0.0 | 0.0 | 0.00 | 0.37 | 0.35 | 91 | 1018.5 |
| 20260901185517 | 59 | 238 | 0.0 | 0.0 | 0.00 | 0.37 | 0.35 | 91 | 1018.6 |
| 20260901185011 | 59 | 238 | 0.0 | 0.0 | 0.00 | 0.37 | 0.35 | 91 | 1018.5 |
| 20260901184511 | 59 | 238 | 0.0 | 0.0 | 0.00 | 0.37 | 0.35 | 91 | 1018.5 |
| 20260901184011 | 60 | 238 | 0.0 | 0.0 | 0.00 | 0.37 | 0.35 | 91 | 1018.4 |
| 20260901183511 | 60 | 238 | 0.0 | 1.0 | 0.00 | 0.37 | 0.35 | 91 | 1018.3 |
| 20260901183009 | 60 | 238 | 0.0 | 1.0 | 0.00 | 0.37 | 0.35 | 91 | 1018.3 |
| 20260901182509 | 60 | 238 | 0.0 | 0.0 | 0.00 | 0.37 | 0.35 | 90 | 1018.2 |
| 20260901182009 | 60 | 238 | 0.0 | 0.0 | 0.00 | 0.37 | 0.35 | 90 | 1018.2 |
| 20260901181511 | 61 | 238 | 0.0 | 0.0 | 0.00 | 0.37 | 0.35 | 90 | 1018.2 |
| 20260901181010 | 61 | 238 | 0.0 | 4.0 | 0.00 | 0.37 | 0.35 | 90 | 1018.1 |
| 20260901180509 | 61 | 238 | 1.0 | 4.0 | 0.00 | 0.37 | 0.35 | 90 | 1018.1 |
| 20260901180008 | 61 | 259 | 1.0 | 3.0 | 0.00 | 0.37 | 0.35 | 90 | 1018.0 |
| 20260901175511 | 61 | 261 | 0.0 | 3.0 | 0.00 | 0.37 | 0.35 | 90 | 1018.0 |
| 20260901175007 | 61 | 261 | 0.0 | 3.0 | 0.00 | 0.37 | 0.35 | 90 | 1017.9 |
| 20260901174509 | 62 | 270 | 0.0 | 3.0 | 0.00 | 0.37 | 0.35 | 90 | 1017.8 |
| 20260901174008 | 62 | 270 | 1.0 | 3.0 | 0.00 | 0.37 | 0.35 | 90 | 1017.8 |
| 20260901173507 | 62 | 270 | 0.0 | 2.0 | 0.00 | 0.37 | 0.35 | 90 | 1017.8 |
| 20260901173006 | 62 | 270 | 0.0 | 3.0 | 0.00 | 0.37 | 0.35 | 91 | 1017.8 |
| 20260901172510 | 62 | 270 | 1.0 | 3.0 | 0.00 | 0.37 | 0.35 | 91 | 1017.8 |
| 20260901172007 | 62 | 270 | 0.0 | 1.0 | 0.00 | 0.37 | 0.35 | 91 | 1017.8 |